sat.trackr.live / text

‹ back to catalog

COSMOS 2502

NORAD 40358 · 2014-086A

PAYLOAD ACTIVE UNKNOWN

§ Identity

Operator
Country
CIS
Launch date
2014-12-25
Launch site
PLMSC
Launch vehicle
Mass (kg)
RCS (m²)
12.93

External: N2YO · Heavens-Above · Gunter

§ Orbital elements

Epoch: 2026-05-25T04:11:57.517728Z

Period
103.02 min
Inclination
67.1533°
Eccentricity
0.0008487
Mean motion
13.97820141 rev/d
Perigee alt
895.2 km
Apogee alt
907.5 km
Semi-major
7,279.5 km
B*
1.1984e-4
RAAN
63.2826°
Arg perigee
263.3804°
Mean anomaly
96.6316°
Rev number
58,073

§ Raw data

COSMOS 25021 40358U 14086A   26145.17497127  .00000094  00000+0  11984-3 0  99932 40358  67.1533  63.2826 0008487 263.3804  96.6316 13.97820141580737

JSON: /api/v1/satellites/40358 · /tle

For live sub-satellite position, see the globe view (requires WebGL).

§ Visibility from observer

Set your observer location to see the next 7 days of passes ≥ 10°. The values pass through the URL so the page stays shareable.

No JS? Fill the form by hand. The geolocation button needs JavaScript.